MGY47 SBRF-SBJP

Flight info

Callsign MGY47
Flight time N/A
Altitude 17000
Route DCT
Aircraft B738/M-SDE3/STD

Departure

Time 2026-05-05 19:01
Airport Recife/Guararapes - Gilberto Freyre International Airport (SBRF)

Arrival

Time N/A
Airport Presidente Castro Pinto International Airport (SBJP)
Time Latitude Longitude Altitude Speed Heading
2026-05-05 18:53 -8.14069 -34.91875 37 ft 0 kts 341°
2026-05-05 18:59 -8.14066 -34.91876 37 ft 9 kts 341°
2026-05-05 19:00 -8.13818 -34.91960 37 ft 62 kts 341°
2026-05-05 19:00 -8.13310 -34.92131 49 ft 87 kts 341°
2026-05-05 19:00 -8.12739 -34.92324 204 ft 83 kts 341°
2026-05-05 19:00 -8.12378 -34.92445 309 ft 82 kts 341°
2026-05-05 19:01 -8.11827 -34.92631 456 ft 87 kts 341°
2026-05-05 19:01 -8.11225 -34.92819 639 ft 91 kts 351°
2026-05-05 19:01 -8.10664 -34.92571 825 ft 91 kts 44°
2026-05-05 19:01 -8.10189 -34.92147 1019 ft 92 kts 40°
2026-05-05 19:02 -8.09698 -34.91722 1212 ft 92 kts 40°
2026-05-05 19:02 -8.09212 -34.91300 1400 ft 92 kts 40°
2026-05-05 19:02 -8.08730 -34.90881 1586 ft 91 kts 40°
2026-05-05 19:02 -8.08250 -34.90465 1768 ft 91 kts 40°
2026-05-05 19:03 -8.07762 -34.90042 1951 ft 91 kts 40°
2026-05-05 19:03 -8.07282 -34.89626 2128 ft 91 kts 40°
2026-05-05 19:03 -8.06799 -34.89207 2305 ft 90 kts 40°
2026-05-05 19:03 -8.06315 -34.88786 2479 ft 90 kts 40°
2026-05-05 19:04 -8.05838 -34.88372 2649 ft 90 kts 40°
2026-05-05 19:04 -8.05361 -34.87958 2816 ft 90 kts 40°
2026-05-05 19:04 -8.04889 -34.87549 2978 ft 90 kts 40°
2026-05-05 19:04 -8.04414 -34.87137 3143 ft 90 kts 40°
2026-05-05 19:05 -8.03931 -34.86718 3312 ft 90 kts 40°
2026-05-05 19:05 -8.03452 -34.86301 3482 ft 90 kts 40°
2026-05-05 19:05 -8.02981 -34.85884 3651 ft 90 kts 40°
2026-05-05 19:05 -8.02516 -34.85465 3818 ft 89 kts 40°
2026-05-05 19:06 -8.02059 -34.85043 3982 ft 89 kts 40°
2026-05-05 19:06 -8.01601 -34.84611 4146 ft 88 kts 40°
2026-05-05 19:06 -8.01158 -34.84184 4303 ft 88 kts 40°
2026-05-05 19:06 -8.00722 -34.83751 4457 ft 88 kts 40°
2026-05-05 19:07 -8.00288 -34.83312 4609 ft 88 kts 40°
2026-05-05 19:07 -7.99860 -34.82868 4757 ft 88 kts 40°
2026-05-05 19:07 -7.99436 -34.82417 4902 ft 89 kts 40°
2026-05-05 19:07 -7.99014 -34.81961 5045 ft 89 kts 40°
2026-05-05 19:08 -7.98589 -34.81492 5186 ft 90 kts 40°
2026-05-05 19:08 -7.98170 -34.81022 5322 ft 90 kts 40°
2026-05-05 19:08 -7.97745 -34.80538 5458 ft 91 kts 40°
2026-05-05 19:08 -7.97325 -34.80053 5580 ft 94 kts 40°
2026-05-05 19:09 -7.96855 -34.79519 5570 ft 107 kts 40°
2026-05-05 19:09 -7.96335 -34.78944 5537 ft 115 kts 40°
2026-05-05 19:09 -7.95782 -34.78340 5515 ft 118 kts 40°
2026-05-05 19:09 -7.95221 -34.77731 5504 ft 119 kts 40°
2026-05-05 19:10 -7.94528 -34.77374 5492 ft 107 kts 352°
2026-05-05 19:10 -7.93822 -34.77535 5524 ft 104 kts 341°
2026-05-05 19:10 -7.93111 -34.77707 5499 ft 106 kts 341°
2026-05-05 19:10 -7.92355 -34.77891 5560 ft 119 kts 342°
2026-05-05 19:11 -7.91525 -34.78097 5517 ft 126 kts 342°
2026-05-05 19:11 -7.90663 -34.78314 5425 ft 120 kts 342°
2026-05-05 19:11 -7.89912 -34.78501 5456 ft 104 kts 342°
2026-05-05 19:11 -7.89450 -34.78613 5464 ft 98 kts 342°
2026-05-05 19:12 -7.88807 -34.78764 5476 ft 92 kts 342°
2026-05-05 19:12 -7.88190 -34.78906 5487 ft 90 kts 342°
2026-05-05 19:12 -7.87578 -34.79045 5499 ft 90 kts 342°
2026-05-05 19:12 -7.86960 -34.79185 5506 ft 92 kts 342°
2026-05-05 19:13 -7.86321 -34.79331 5506 ft 94 kts 342°
2026-05-05 19:13 -7.85683 -34.79478 5504 ft 95 kts 342°
2026-05-05 19:13 -7.85039 -34.79626 5502 ft 95 kts 342°
2026-05-05 19:13 -7.84383 -34.79778 5501 ft 95 kts 342°
2026-05-05 19:14 -7.83736 -34.79928 5500 ft 95 kts 342°
2026-05-05 19:14 -7.83087 -34.80078 5500 ft 95 kts 342°
2026-05-05 19:14 -7.82437 -34.80229 5500 ft 95 kts 342°
2026-05-05 19:14 -7.81787 -34.80379 5500 ft 95 kts 342°
2026-05-05 19:15 -7.81130 -34.80531 5500 ft 95 kts 342°
2026-05-05 19:15 -7.80482 -34.80681 5500 ft 95 kts 342°
2026-05-05 19:15 -7.79835 -34.80831 5500 ft 95 kts 342°
2026-05-05 19:15 -7.79186 -34.80981 5500 ft 95 kts 342°
2026-05-05 19:16 -7.78538 -34.81132 5500 ft 95 kts 342°
2026-05-05 19:16 -7.77881 -34.81283 5500 ft 95 kts 342°
2026-05-05 19:16 -7.77233 -34.81434 5500 ft 95 kts 342°
2026-05-05 19:16 -7.76575 -34.81586 5500 ft 95 kts 342°
2026-05-05 19:17 -7.75926 -34.81736 5500 ft 95 kts 342°
2026-05-05 19:17 -7.75276 -34.81886 5500 ft 95 kts 342°
2026-05-05 19:17 -7.74628 -34.82036 5500 ft 95 kts 342°
2026-05-05 19:17 -7.73983 -34.82186 5500 ft 95 kts 342°
2026-05-05 19:18 -7.73320 -34.82339 5500 ft 95 kts 342°
2026-05-05 19:18 -7.72673 -34.82490 5500 ft 95 kts 342°
2026-05-05 19:18 -7.72016 -34.82644 5500 ft 95 kts 342°
2026-05-05 19:18 -7.71368 -34.82795 5500 ft 95 kts 342°
2026-05-05 19:19 -7.70722 -34.82947 5500 ft 95 kts 342°
2026-05-05 19:19 -7.70055 -34.83103 5500 ft 95 kts 342°
2026-05-05 19:19 -7.69398 -34.83257 5500 ft 95 kts 342°
2026-05-05 19:19 -7.68751 -34.83409 5500 ft 95 kts 342°
2026-05-05 19:20 -7.68102 -34.83561 5500 ft 95 kts 342°
2026-05-05 19:20 -7.67444 -34.83716 5500 ft 95 kts 342°
2026-05-05 19:20 -7.66799 -34.83867 5500 ft 95 kts 342°
2026-05-05 19:20 -7.66141 -34.84022 5500 ft 95 kts 342°
2026-05-05 19:21 -7.65494 -34.84174 5500 ft 95 kts 342°
2026-05-05 19:21 -7.64837 -34.84328 5500 ft 95 kts 342°
2026-05-05 19:21 -7.64189 -34.84481 5500 ft 95 kts 342°
2026-05-05 19:21 -7.63539 -34.84633 5500 ft 95 kts 342°
2026-05-05 19:22 -7.62891 -34.84785 5500 ft 95 kts 342°
2026-05-05 19:22 -7.62242 -34.84938 5500 ft 95 kts 342°
2026-05-05 19:22 -7.61596 -34.85090 5500 ft 95 kts 342°
2026-05-05 19:22 -7.61158 -34.85192 5500 ft 95 kts 342°
2026-05-05 19:23 -7.60502 -34.85346 5500 ft 95 kts 342°
2026-05-05 19:23 -7.60198 -34.85418 5500 ft 95 kts 342°
2026-05-05 19:23 -7.59559 -34.85567 5528 ft 96 kts 342°
2026-05-05 19:23 -7.58859 -34.85733 5552 ft 109 kts 342°
2026-05-05 19:24 -7.58093 -34.85922 5506 ft 116 kts 342°
2026-05-05 19:24 -7.57327 -34.86114 5458 ft 108 kts 342°
2026-05-05 19:24 -7.56618 -34.86289 5476 ft 101 kts 342°
2026-05-05 19:24 -7.55944 -34.86451 5487 ft 98 kts 342°
2026-05-05 19:25 -7.55286 -34.86607 5494 ft 96 kts 342°
2026-05-05 19:25 -7.54637 -34.86761 5497 ft 96 kts 342°
2026-05-05 19:25 -7.53988 -34.86915 5499 ft 95 kts 342°
2026-05-05 19:25 -7.53332 -34.87070 5500 ft 95 kts 342°
2026-05-05 19:26 -7.52683 -34.87223 5500 ft 95 kts 342°
2026-05-05 19:26 -7.52027 -34.87378 5500 ft 95 kts 342°
2026-05-05 19:26 -7.51380 -34.87531 5500 ft 96 kts 342°
2026-05-05 19:26 -7.50732 -34.87684 5500 ft 96 kts 342°
2026-05-05 19:27 -7.50085 -34.87837 5500 ft 96 kts 342°
2026-05-05 19:27 -7.49435 -34.87990 5500 ft 96 kts 342°
2026-05-05 19:27 -7.48785 -34.88144 5500 ft 96 kts 342°
2026-05-05 19:27 -7.48131 -34.88299 5500 ft 96 kts 342°
2026-05-05 19:28 -7.47483 -34.88452 5500 ft 96 kts 342°
2026-05-05 19:28 -7.46826 -34.88607 5500 ft 96 kts 342°
2026-05-05 19:28 -7.46170 -34.88762 5500 ft 96 kts 342°
2026-05-05 19:28 -7.45532 -34.88913 5500 ft 96 kts 342°
2026-05-05 19:29 -7.44875 -34.89068 5500 ft 96 kts 342°
2026-05-05 19:29 -7.44217 -34.89223 5500 ft 96 kts 342°
2026-05-05 19:29 -7.43570 -34.89376 5500 ft 96 kts 342°
2026-05-05 19:29 -7.42924 -34.89529 5500 ft 96 kts 342°
2026-05-05 19:30 -7.42265 -34.89684 5500 ft 96 kts 342°
2026-05-05 19:30 -7.41618 -34.89837 5500 ft 96 kts 342°
2026-05-05 19:30 -7.40971 -34.89990 5500 ft 96 kts 342°
2026-05-05 19:30 -7.40321 -34.90143 5500 ft 96 kts 342°
2026-05-05 19:31 -7.39672 -34.90296 5500 ft 96 kts 342°
2026-05-05 19:31 -7.39024 -34.90449 5500 ft 96 kts 342°
2026-05-05 19:31 -7.38366 -34.90604 5500 ft 96 kts 342°
2026-05-05 19:31 -7.37719 -34.90757 5500 ft 96 kts 342°
2026-05-05 19:32 -7.37072 -34.90909 5500 ft 96 kts 342°
2026-05-05 19:32 -7.36424 -34.91062 5500 ft 96 kts 342°
2026-05-05 19:32 -7.35763 -34.91218 5500 ft 96 kts 342°
2026-05-05 19:32 -7.35116 -34.91370 5500 ft 96 kts 342°
2026-05-05 19:33 -7.34676 -34.91474 5500 ft 96 kts 342°
2026-05-05 19:33 -7.34021 -34.91628 5500 ft 96 kts 342°
2026-05-05 19:33 -7.33371 -34.91781 5500 ft 96 kts 342°
2026-05-05 19:33 -7.32690 -34.91942 5500 ft 96 kts 342°
2026-05-05 19:34 -7.32246 -34.92046 5500 ft 96 kts 342°
2026-05-05 19:34 -7.31849 -34.92140 5500 ft 96 kts 342°
2026-05-05 19:34 -7.31182 -34.92297 5501 ft 96 kts 342°
2026-05-05 19:35 -7.29842 -34.92615 5502 ft 98 kts 342°
2026-05-05 19:35 -7.29167 -34.92771 5501 ft 98 kts 343°
2026-05-05 19:35 -7.28491 -34.92888 5501 ft 99 kts 346°
2026-05-05 19:35 -7.27806 -34.92983 5500 ft 99 kts 347°
2026-05-05 19:36 -7.27095 -34.93080 5500 ft 99 kts 347°
2026-05-05 19:36 -7.26413 -34.93207 5496 ft 97 kts 332°
2026-05-05 19:36 -7.26085 -34.93509 5515 ft 93 kts 308°
2026-05-05 19:36 -7.25659 -34.94010 5513 ft 94 kts 310°
2026-05-05 19:37 -7.25224 -34.94511 5504 ft 95 kts 310°
2026-05-05 19:37 -7.24775 -34.95027 5501 ft 95 kts 310°
2026-05-05 19:37 -7.24340 -34.95529 5500 ft 95 kts 310°
2026-05-05 19:37 -7.23898 -34.96039 5500 ft 95 kts 310°
2026-05-05 19:38 -7.23601 -34.96380 5500 ft 95 kts 310°
2026-05-05 19:38 -7.23085 -34.96817 5490 ft 99 kts 340°
2026-05-05 19:38 -7.22401 -34.96704 5527 ft 101 kts
2026-05-05 19:38 -7.21711 -34.96494 5511 ft 103 kts 10°
2026-05-05 19:39 -7.21018 -34.96285 5504 ft 104 kts 10°
2026-05-05 19:39 -7.20323 -34.96075 5501 ft 104 kts 10°
2026-05-05 19:39 -7.19627 -34.95866 5500 ft 104 kts 10°
2026-05-05 19:39 -7.18933 -34.95653 5499 ft 105 kts 13°
2026-05-05 19:40 -7.18437 -34.95099 5503 ft 114 kts 67°
2026-05-05 19:40 -7.18230 -34.94328 5519 ft 115 kts 70°
2026-05-05 19:40 -7.18015 -34.93523 5507 ft 117 kts 70°
2026-05-05 19:40 -7.17800 -34.92720 5502 ft 117 kts 70°
2026-05-05 19:41 -7.17653 -34.92172 5500 ft 117 kts 70°
2026-05-05 19:41 -7.17400 -34.91226 5500 ft 117 kts 70°
2026-05-05 19:41 -7.17186 -34.90426 5500 ft 117 kts 70°
2026-05-05 19:41 -7.16973 -34.89627 5500 ft 117 kts 70°
2026-05-05 19:42 -7.16755 -34.88811 5500 ft 117 kts 70°
2026-05-05 19:42 -7.16545 -34.88028 5500 ft 117 kts 70°
2026-05-05 19:42 -7.16328 -34.87217 5500 ft 117 kts 70°
2026-05-05 19:42 -7.16118 -34.86429 5500 ft 117 kts 70°
2026-05-05 19:43 -7.15907 -34.85641 5500 ft 117 kts 70°
2026-05-05 19:43 -7.15549 -34.84946 5489 ft 108 kts 29°
2026-05-05 19:43 -7.14881 -34.84891 5519 ft 95 kts 339°
2026-05-05 19:43 -7.14233 -34.85073 5516 ft 97 kts 340°
2026-05-05 19:44 -7.13583 -34.85250 5506 ft 98 kts 340°
2026-05-05 19:44 -7.12917 -34.85433 5501 ft 98 kts 340°
2026-05-05 19:44 -7.12234 -34.85620 5500 ft 98 kts 340°
2026-05-05 19:44 -7.11777 -34.85746 5500 ft 98 kts 339°
2026-05-05 19:45 -7.11308 -34.86174 5490 ft 95 kts 284°
2026-05-05 19:45 -7.11516 -34.86825 5530 ft 97 kts 247°
2026-05-05 19:45 -7.11847 -34.87448 5513 ft 100 kts 249°
2026-05-05 19:45 -7.12143 -34.88082 5504 ft 100 kts 252°
2026-05-05 19:46 -7.12427 -34.88733 5501 ft 100 kts 252°
2026-05-05 19:46 -7.12711 -34.89384 5500 ft 100 kts 252°
2026-05-05 19:46 -7.12994 -34.90035 5500 ft 100 kts 252°
2026-05-05 19:46 -7.13274 -34.90677 5500 ft 100 kts 252°
2026-05-05 19:47 -7.13545 -34.91320 5500 ft 100 kts 253°
2026-05-05 19:47 -7.13800 -34.91967 5500 ft 99 kts 254°
2026-05-05 19:47 -7.14054 -34.92615 5500 ft 99 kts 254°
2026-05-05 19:47 -7.14312 -34.93273 5500 ft 99 kts 254°
2026-05-05 19:48 -7.14566 -34.93922 5500 ft 99 kts 254°
2026-05-05 19:48 -7.14815 -34.94557 5500 ft 99 kts 254°
2026-05-05 19:48 -7.15075 -34.95220 5500 ft 99 kts 254°
2026-05-05 19:48 -7.15335 -34.95885 5500 ft 99 kts 254°
2026-05-05 19:49 -7.15589 -34.96532 5500 ft 99 kts 254°
2026-05-05 19:49 -7.15760 -34.96970 5500 ft 99 kts 254°
2026-05-05 19:49 -7.16101 -34.97839 5500 ft 99 kts 254°
2026-05-05 19:49 -7.16355 -34.98488 5500 ft 99 kts 254°
2026-05-05 19:50 -7.16610 -34.99137 5500 ft 99 kts 254°
2026-05-05 19:50 -7.16863 -34.99784 5500 ft 99 kts 254°
2026-05-05 19:50 -7.17121 -35.00440 5500 ft 99 kts 254°
2026-05-05 19:50 -7.17375 -35.01091 5500 ft 99 kts 254°
2026-05-05 19:51 -7.17630 -35.01740 5500 ft 99 kts 254°
2026-05-05 19:51 -7.17929 -35.02391 5495 ft 103 kts 237°
2026-05-05 19:51 -7.18527 -35.02808 5521 ft 105 kts 219°
2026-05-05 19:51 -7.18965 -35.03348 5496 ft 97 kts 268°
2026-05-05 19:52 -7.18692 -35.03920 5527 ft 92 kts 310°
2026-05-05 19:52 -7.18191 -35.04340 5510 ft 97 kts 336°
2026-05-05 19:52 -7.17752 -35.04460 5524 ft 97 kts 340°
2026-05-05 19:52 -7.17067 -35.04646 5508 ft 98 kts 340°
2026-05-05 19:53 -7.16404 -35.04827 5502 ft 99 kts 340°
2026-05-05 19:53 -7.15744 -35.05008 5500 ft 99 kts 340°
2026-05-05 19:53 -7.15062 -35.05195 5499 ft 98 kts 340°
2026-05-05 19:53 -7.14370 -35.05384 5499 ft 98 kts 340°
2026-05-05 19:54 -7.13658 -35.05578 5500 ft 98 kts 340°
2026-05-05 19:54 -7.12975 -35.05765 5501 ft 98 kts 340°
2026-05-05 19:54 -7.12290 -35.05953 5503 ft 99 kts 340°
2026-05-05 19:54 -7.11611 -35.06139 5503 ft 100 kts 340°
2026-05-05 19:55 -7.10927 -35.06327 5502 ft 101 kts 340°
2026-05-05 19:55 -7.10460 -35.06455 5501 ft 101 kts 340°
2026-05-05 19:55 -7.09782 -35.06642 5501 ft 101 kts 340°
2026-05-05 19:55 -7.09087 -35.06834 5500 ft 101 kts 340°
2026-05-05 19:56 -7.08389 -35.07026 5500 ft 101 kts 340°
2026-05-05 19:56 -7.07702 -35.07216 5500 ft 101 kts 340°
2026-05-05 19:56 -7.06990 -35.07412 5500 ft 101 kts 340°
2026-05-05 19:56 -7.06252 -35.07616 5500 ft 101 kts 340°
2026-05-05 19:57 -7.05565 -35.07805 5500 ft 101 kts 340°
2026-05-05 19:57 -7.05108 -35.07931 5500 ft 101 kts 340°
2026-05-05 19:57 -7.04189 -35.08184 5500 ft 101 kts 340°
2026-05-05 19:57 -7.03510 -35.08372 5500 ft 101 kts 340°
2026-05-05 19:58 -7.02926 -35.08731 5506 ft 97 kts 309°
2026-05-05 19:58 -7.02489 -35.09249 5511 ft 97 kts 309°
2026-05-05 19:58 -7.02044 -35.09781 5503 ft 98 kts 309°
2026-05-05 19:58 -7.01746 -35.10134 5501 ft 98 kts 311°
2026-05-05 19:59 -7.01109 -35.10333 5491 ft 107 kts
2026-05-05 19:59 -7.00549 -35.09807 5528 ft 111 kts 47°
2026-05-05 19:59 -7.00031 -35.09219 5517 ft 113 kts 40°
2026-05-05 19:59 -6.99481 -35.08634 5506 ft 114 kts 40°
2026-05-05 20:00 -6.98933 -35.08054 5501 ft 114 kts 40°
2026-05-05 20:00 -6.98600 -35.07317 5490 ft 122 kts 90°
2026-05-05 20:00 -6.98990 -35.06547 5529 ft 121 kts 128°
2026-05-05 20:00 -6.99503 -35.05867 5513 ft 123 kts 128°
2026-05-05 20:01 -7.00028 -35.05173 5504 ft 124 kts 128°
2026-05-05 20:01 -7.00566 -35.04463 5501 ft 124 kts 128°
2026-05-05 20:01 -7.01098 -35.03761 5500 ft 124 kts 128°
2026-05-05 20:01 -7.01630 -35.03060 5500 ft 124 kts 128°
2026-05-05 20:02 -7.02154 -35.02370 5500 ft 124 kts 128°
2026-05-05 20:02 -7.02685 -35.01671 5500 ft 124 kts 128°
2026-05-05 20:02 -7.03207 -35.00982 5500 ft 124 kts 128°
2026-05-05 20:02 -7.03737 -35.00283 5500 ft 124 kts 128°
2026-05-05 20:03 -7.04260 -34.99592 5500 ft 124 kts 128°
2026-05-05 20:03 -7.04782 -34.98903 5500 ft 124 kts 128°
2026-05-05 20:03 -7.05309 -34.98206 5500 ft 124 kts 128°
2026-05-05 20:03 -7.05329 -34.98180 5500 ft 124 kts 128°
2026-05-05 20:04 -7.05767 -34.97601 5500 ft 124 kts 128°
2026-05-05 20:04 -7.06296 -34.96902 5500 ft 124 kts 128°
2026-05-05 20:04 -7.06826 -34.96202 5500 ft 124 kts 128°
2026-05-05 20:04 -7.07364 -34.95491 5500 ft 124 kts 128°
2026-05-05 20:05 -7.07891 -34.94795 5500 ft 124 kts 128°
2026-05-05 20:05 -7.08263 -34.94307 5500 ft 124 kts 130°
2026-05-05 20:05 -7.08993 -34.93915 5496 ft 117 kts 184°
2026-05-05 20:05 -7.09798 -34.93957 5525 ft 115 kts 188°
2026-05-05 20:06 -7.10608 -34.94020 5508 ft 116 kts 192°
2026-05-05 20:06 -7.11423 -34.94116 5502 ft 116 kts 193°
2026-05-05 20:06 -7.12233 -34.94214 5500 ft 116 kts 193°
2026-05-05 20:06 -7.13039 -34.94312 5500 ft 116 kts 193°
2026-05-05 20:07 -7.13860 -34.94412 5500 ft 116 kts 193°
2026-05-05 20:07 -7.14660 -34.94509 5500 ft 116 kts 193°
2026-05-05 20:07 -7.15468 -34.94607 5500 ft 116 kts 193°
2026-05-05 20:07 -7.16267 -34.94703 5537 ft 112 kts 193°
2026-05-05 20:08 -7.17023 -34.94786 5654 ft 105 kts 193°
2026-05-05 20:08 -7.17728 -34.94851 5774 ft 99 kts 193°
2026-05-05 20:08 -7.18402 -34.94903 5900 ft 95 kts 193°
2026-05-05 20:08 -7.19055 -34.94941 6031 ft 91 kts 193°
2026-05-05 20:09 -7.19678 -34.94973 6164 ft 88 kts 194°
2026-05-05 20:09 -7.20282 -34.94963 6304 ft 86 kts 188°
2026-05-05 20:09 -7.20875 -34.94916 6434 ft 84 kts 188°
2026-05-05 20:09 -7.21475 -34.94864 6517 ft 87 kts 188°
2026-05-05 20:10 -7.22115 -34.94815 6540 ft 95 kts 188°
2026-05-05 20:10 -7.22821 -34.94772 6533 ft 103 kts 188°
2026-05-05 20:10 -7.23554 -34.94737 6519 ft 107 kts 188°
2026-05-05 20:10 -7.24339 -34.94704 6509 ft 109 kts 188°
2026-05-05 20:11 -7.24855 -34.94683 6505 ft 110 kts 188°
2026-05-05 20:11 -7.25622 -34.94654 6502 ft 110 kts 188°
2026-05-05 20:11 -7.26393 -34.94625 6501 ft 111 kts 188°
2026-05-05 20:11 -7.27170 -34.94596 6500 ft 111 kts 188°
2026-05-05 20:12 -7.27941 -34.94567 6500 ft 111 kts 188°
2026-05-05 20:12 -7.28719 -34.94538 6500 ft 110 kts 188°
2026-05-05 20:12 -7.29490 -34.94509 6500 ft 110 kts 188°
2026-05-05 20:12 -7.30260 -34.94480 6500 ft 110 kts 188°
2026-05-05 20:13 -7.31039 -34.94450 6500 ft 110 kts 188°
2026-05-05 20:13 -7.31807 -34.94421 6500 ft 110 kts 188°
2026-05-05 20:13 -7.32575 -34.94393 6500 ft 110 kts 188°
2026-05-05 20:13 -7.33368 -34.94363 6500 ft 110 kts 188°
2026-05-05 20:14 -7.34135 -34.94334 6500 ft 110 kts 188°
2026-05-05 20:14 -7.34905 -34.94305 6500 ft 110 kts 188°
2026-05-05 20:14 -7.35674 -34.94276 6500 ft 110 kts 188°
2026-05-05 20:14 -7.36453 -34.94247 6500 ft 110 kts 188°
2026-05-05 20:15 -7.37223 -34.94218 6500 ft 110 kts 188°
2026-05-05 20:15 -7.38003 -34.94188 6500 ft 110 kts 188°
2026-05-05 20:15 -7.38772 -34.94159 6500 ft 110 kts 188°
2026-05-05 20:15 -7.39550 -34.94130 6485 ft 111 kts 187°
2026-05-05 20:16 -7.40359 -34.94107 6573 ft 124 kts 188°
2026-05-05 20:16 -7.41269 -34.94095 6530 ft 136 kts 188°
2026-05-05 20:16 -7.42232 -34.94090 6400 ft 133 kts 188°
2026-05-05 20:16 -7.43101 -34.94077 6461 ft 119 kts 188°
2026-05-05 20:17 -7.43922 -34.94055 6480 ft 114 kts 188°
2026-05-05 20:17 -7.44708 -34.94029 6491 ft 112 kts 188°
2026-05-05 20:17 -7.45481 -34.94001 6496 ft 111 kts 188°
2026-05-05 20:17 -7.46252 -34.93972 6499 ft 111 kts 188°
2026-05-05 20:18 -7.47031 -34.93943 6500 ft 110 kts 188°
2026-05-05 20:18 -7.47799 -34.93914 6500 ft 110 kts 188°
2026-05-05 20:18 -7.48568 -34.93885 6500 ft 110 kts 188°
2026-05-05 20:18 -7.49348 -34.93856 6500 ft 110 kts 188°
2026-05-05 20:19 -7.50126 -34.93827 6500 ft 111 kts 188°
2026-05-05 20:19 -7.50901 -34.93797 6500 ft 111 kts 188°
2026-05-05 20:19 -7.51683 -34.93768 6500 ft 111 kts 188°
2026-05-05 20:19 -7.52455 -34.93739 6500 ft 111 kts 188°
2026-05-05 20:20 -7.53234 -34.93710 6500 ft 111 kts 188°
2026-05-05 20:20 -7.54003 -34.93681 6500 ft 111 kts 188°
2026-05-05 20:20 -7.54521 -34.93661 6500 ft 111 kts 188°
2026-05-05 20:20 -7.55291 -34.93632 6500 ft 111 kts 188°
2026-05-05 20:21 -7.56069 -34.93603 6500 ft 111 kts 188°
2026-05-05 20:21 -7.56840 -34.93574 6500 ft 111 kts 188°
2026-05-05 20:21 -7.57610 -34.93545 6500 ft 111 kts 188°
2026-05-05 20:21 -7.58390 -34.93516 6500 ft 111 kts 188°
2026-05-05 20:22 -7.59169 -34.93486 6500 ft 111 kts 188°
2026-05-05 20:22 -7.59940 -34.93457 6500 ft 111 kts 188°
2026-05-05 20:22 -7.60708 -34.93428 6500 ft 111 kts 188°
2026-05-05 20:22 -7.61487 -34.93399 6500 ft 111 kts 188°
2026-05-05 20:23 -7.62257 -34.93370 6500 ft 111 kts 188°
2026-05-05 20:23 -7.63028 -34.93341 6500 ft 111 kts 188°
2026-05-05 20:23 -7.63806 -34.93312 6500 ft 111 kts 188°
2026-05-05 20:23 -7.64580 -34.93283 6500 ft 111 kts 188°
2026-05-05 20:24 -7.65360 -34.93253 6500 ft 111 kts 188°
2026-05-05 20:24 -7.66140 -34.93224 6500 ft 111 kts 188°
2026-05-05 20:24 -7.66909 -34.93195 6500 ft 111 kts 188°
2026-05-05 20:24 -7.67690 -34.93166 6500 ft 111 kts 188°
2026-05-05 20:25 -7.68460 -34.93137 6500 ft 111 kts 188°
2026-05-05 20:25 -7.69229 -34.93108 6500 ft 111 kts 188°
2026-05-05 20:25 -7.70011 -34.93079 6500 ft 111 kts 188°
2026-05-05 20:25 -7.70792 -34.93049 6500 ft 111 kts 188°
2026-05-05 20:26 -7.71561 -34.93021 6500 ft 111 kts 188°
2026-05-05 20:26 -7.72331 -34.92992 6500 ft 111 kts 188°
2026-05-05 20:26 -7.73112 -34.92962 6500 ft 111 kts 188°
2026-05-05 20:26 -7.73879 -34.92934 6500 ft 111 kts 188°
2026-05-05 20:27 -7.74651 -34.92905 6500 ft 111 kts 188°
2026-05-05 20:27 -7.75430 -34.92875 6500 ft 111 kts 188°
2026-05-05 20:27 -7.76200 -34.92846 6500 ft 111 kts 188°
2026-05-05 20:27 -7.76979 -34.92817 6500 ft 111 kts 188°
2026-05-05 20:28 -7.77750 -34.92788 6500 ft 111 kts 188°
2026-05-05 20:28 -7.78518 -34.92758 6500 ft 111 kts 188°
2026-05-05 20:28 -7.79296 -34.92729 6500 ft 111 kts 188°
2026-05-05 20:28 -7.80068 -34.92700 6500 ft 111 kts 188°
2026-05-05 20:29 -7.80838 -34.92671 6500 ft 111 kts 188°
2026-05-05 20:29 -7.81608 -34.92642 6500 ft 111 kts 188°
2026-05-05 20:29 -7.82387 -34.92612 6500 ft 111 kts 188°
2026-05-05 20:29 -7.82897 -34.92593 6500 ft 111 kts 188°
2026-05-05 20:30 -7.83676 -34.92564 6500 ft 111 kts 188°
2026-05-05 20:30 -7.84447 -34.92535 6500 ft 111 kts 188°
2026-05-05 20:30 -7.85217 -34.92505 6500 ft 111 kts 188°
2026-05-05 20:30 -7.85997 -34.92476 6500 ft 111 kts 188°
2026-05-05 20:31 -7.86767 -34.92447 6500 ft 111 kts 188°
2026-05-05 20:31 -7.87538 -34.92418 6500 ft 111 kts 188°
2026-05-05 20:31 -7.88308 -34.92389 6500 ft 111 kts 188°
2026-05-05 20:31 -7.88986 -34.92363 6500 ft 111 kts 188°
2026-05-05 20:32 -7.89794 -34.92333 6500 ft 111 kts 188°
2026-05-05 20:32 -7.90573 -34.92303 6500 ft 111 kts 188°
2026-05-05 20:32 -7.91354 -34.92274 6500 ft 111 kts 188°
2026-05-05 20:32 -7.92121 -34.92245 6500 ft 111 kts 188°
2026-05-05 20:33 -7.92903 -34.92215 6500 ft 111 kts 188°
2026-05-05 20:33 -7.93670 -34.92186 6500 ft 111 kts 188°
2026-05-05 20:33 -7.94446 -34.92157 6500 ft 111 kts 188°
2026-05-05 20:33 -7.95223 -34.92127 6500 ft 111 kts 188°
2026-05-05 20:34 -7.95996 -34.92098 6500 ft 111 kts 188°
2026-05-05 20:34 -7.96770 -34.92069 6500 ft 111 kts 188°
2026-05-05 20:34 -7.97541 -34.92039 6500 ft 111 kts 188°
2026-05-05 20:34 -7.98312 -34.92010 6500 ft 111 kts 188°
2026-05-05 20:35 -7.99092 -34.91980 6500 ft 111 kts 188°
2026-05-05 20:35 -7.99869 -34.91951 6500 ft 111 kts 188°
2026-05-05 20:35 -8.00639 -34.91922 6500 ft 111 kts 188°
2026-05-05 20:35 -8.01410 -34.91892 6500 ft 111 kts 188°
2026-05-05 20:36 -8.02190 -34.91863 6500 ft 111 kts 188°
2026-05-05 20:36 -8.02958 -34.91834 6500 ft 111 kts 188°
2026-05-05 20:36 -8.03740 -34.91804 6500 ft 111 kts 188°
2026-05-05 20:36 -8.04518 -34.91775 6500 ft 111 kts 188°
2026-05-05 20:37 -8.05288 -34.91745 6500 ft 111 kts 188°
2026-05-05 20:37 -8.05809 -34.91726 6500 ft 111 kts 188°
2026-05-05 20:37 -8.06827 -34.91687 6500 ft 111 kts 188°
2026-05-05 20:37 -8.07610 -34.91657 6500 ft 111 kts 188°
2026-05-05 20:38 -8.08377 -34.91628 6500 ft 111 kts 188°
2026-05-05 20:38 -8.09151 -34.91599 6500 ft 111 kts 188°
2026-05-05 20:38 -8.09928 -34.91573 6500 ft 110 kts 189°
2026-05-05 20:38 -8.10694 -34.91565 6500 ft 110 kts 189°
2026-05-05 20:39 -8.11187 -34.91561 6500 ft 110 kts 189°
2026-05-05 20:39 -8.12008 -34.91555 6500 ft 110 kts 189°
2026-05-05 20:39 -8.12775 -34.91550 6500 ft 110 kts 189°
2026-05-05 20:39 -8.13541 -34.91544 6500 ft 110 kts 189°
2026-05-05 20:40 -8.14310 -34.91539 6500 ft 110 kts 189°
2026-05-05 20:40 -8.15096 -34.91533 6500 ft 110 kts 189°
2026-05-05 20:40 -8.15865 -34.91528 6500 ft 110 kts 189°
2026-05-05 20:40 -8.16639 -34.91522 6500 ft 110 kts 189°
2026-05-05 20:41 -8.17341 -34.91517 6500 ft 110 kts 189°
2026-05-05 20:41 -8.17893 -34.91513 6500 ft 110 kts 189°
2026-05-05 20:41 -8.18658 -34.91508 6500 ft 110 kts 189°
2026-05-05 20:42 -8.19441 -34.91443 6497 ft 116 kts 173°
2026-05-05 20:42 -8.20045 -34.90851 6495 ft 129 kts 110°
2026-05-05 20:42 -8.20051 -34.89960 6531 ft 127 kts 84°
2026-05-05 20:42 -8.19971 -34.89047 6512 ft 130 kts 84°
2026-05-05 20:43 -8.19890 -34.88130 6504 ft 131 kts 84°
2026-05-05 20:43 -8.19810 -34.87215 6501 ft 131 kts 84°
2026-05-05 20:43 -8.19729 -34.86292 6500 ft 131 kts 84°
2026-05-05 20:43 -8.19799 -34.85374 6491 ft 129 kts 119°
2026-05-05 20:44 -8.20252 -34.84616 6526 ft 126 kts 121°
2026-05-05 20:44 -8.20641 -34.83811 6510 ft 128 kts 123°
2026-05-05 20:44 -8.21119 -34.83044 6504 ft 128 kts 128°
2026-05-05 20:44 -8.21615 -34.82285 6501 ft 128 kts 129°
2026-05-05 20:45 -8.22594 -34.80789 6500 ft 127 kts 129°
2026-05-05 20:45 -8.23089 -34.80032 6500 ft 127 kts 129°
2026-05-05 20:45 -8.23579 -34.79283 6500 ft 127 kts 129°
2026-05-05 20:46 -8.24064 -34.78540 6500 ft 127 kts 129°
2026-05-05 20:46 -8.24445 -34.78088 6497 ft 123 kts 147°
2026-05-05 20:46 -8.25182 -34.77887 6495 ft 103 kts 207°
2026-05-05 20:46 -8.25617 -34.78368 6529 ft 90 kts 248°
2026-05-05 20:47 -8.25897 -34.78941 6514 ft 92 kts 249°
2026-05-05 20:47 -8.26187 -34.79538 6504 ft 94 kts 249°
2026-05-05 20:47 -8.26473 -34.80128 6501 ft 94 kts 249°
2026-05-05 20:47 -8.26760 -34.80719 6500 ft 94 kts 249°
2026-05-05 20:48 -8.27050 -34.81317 6500 ft 93 kts 249°
2026-05-05 20:48 -8.27340 -34.81915 6500 ft 93 kts 249°
2026-05-05 20:48 -8.27626 -34.82502 6578 ft 84 kts 248°
2026-05-05 20:48 -8.27867 -34.82979 6753 ft 76 kts 249°
2026-05-05 20:49 -8.28126 -34.83505 6715 ft 77 kts 249°
2026-05-05 20:49 -8.28361 -34.83970 6413 ft 82 kts 249°
2026-05-05 20:49 -8.28421 -34.84569 5955 ft 92 kts 292°
2026-05-05 20:49 -8.28159 -34.85111 5805 ft 76 kts 294°
2026-05-05 20:50 -8.27929 -34.85631 5429 ft 88 kts 295°
2026-05-05 20:50 -8.27620 -34.86165 5179 ft 83 kts 303°
2026-05-05 20:50 -8.27308 -34.86669 4872 ft 88 kts 305°
2026-05-05 20:50 -8.26766 -34.87004 4487 ft 96 kts 342°
2026-05-05 20:51 -8.26206 -34.87284 4310 ft 85 kts 329°
2026-05-05 20:51 -8.25677 -34.87625 3969 ft 94 kts 327°
2026-05-05 20:51 -8.25146 -34.87987 3732 ft 90 kts 327°
2026-05-05 20:51 -8.24578 -34.88313 3423 ft 95 kts 335°
2026-05-05 20:52 -8.23972 -34.88570 3176 ft 93 kts 338°
2026-05-05 20:52 -8.23355 -34.88814 2907 ft 94 kts 339°
2026-05-05 20:52 -8.22746 -34.89053 2660 ft 93 kts 339°
2026-05-05 20:52 -8.22133 -34.89295 2400 ft 93 kts 339°
2026-05-05 20:53 -8.21528 -34.89533 2153 ft 93 kts 339°
2026-05-05 20:53 -8.20935 -34.89767 1905 ft 92 kts 339°
2026-05-05 20:53 -8.20330 -34.90005 1657 ft 92 kts 339°
2026-05-05 20:53 -8.19725 -34.90244 1408 ft 92 kts 339°
2026-05-05 20:54 -8.19322 -34.90402 1244 ft 91 kts 339°
2026-05-05 20:54 -8.18715 -34.90641 990 ft 91 kts 339°
2026-05-05 20:54 -8.18103 -34.90882 767 ft 102 kts 339°
2026-05-05 20:54 -8.17448 -34.91140 962 ft 98 kts 339°
2026-05-05 20:55 -8.16810 -34.91391 1129 ft 99 kts 339°
2026-05-05 20:55 -8.16259 -34.91609 1251 ft 101 kts 339°
2026-05-05 20:55 -8.15568 -34.91881 1321 ft 109 kts 339°
2026-05-05 20:55 -8.14829 -34.92172 1325 ft 116 kts 339°
2026-05-05 20:56 -8.14041 -34.92482 1313 ft 120 kts 339°
2026-05-05 20:56 -8.13259 -34.92790 1305 ft 122 kts 339°
2026-05-05 20:56 -8.12455 -34.93106 1301 ft 121 kts 339°
2026-05-05 20:56 -8.11673 -34.93382 1285 ft 117 kts 350°
2026-05-05 20:57 -8.10879 -34.93303 1313 ft 111 kts
2026-05-05 20:57 -8.10101 -34.93170 1301 ft 112 kts
2026-05-05 20:57 -8.09740 -34.93108 1296 ft 109 kts
2026-05-05 20:57 -8.09383 -34.93047 1288 ft 107 kts
2026-05-05 20:58 -8.08665 -34.92923 1284 ft 103 kts
2026-05-05 20:58 -8.07970 -34.92804 1288 ft 100 kts
2026-05-05 20:58 -8.07281 -34.92685 1293 ft 98 kts
2026-05-05 20:58 -8.06605 -34.92569 1293 ft 96 kts
2026-05-05 20:59 -8.05949 -34.92456 1293 ft 95 kts
2026-05-05 20:59 -8.05300 -34.92345 1295 ft 94 kts
2026-05-05 20:59 -8.04650 -34.92233 1297 ft 93 kts
2026-05-05 20:59 -8.04011 -34.92123 1299 ft 93 kts
2026-05-05 21:00 -8.03353 -34.92010 1300 ft 93 kts
2026-05-05 21:00 -8.02714 -34.91901 1300 ft 93 kts
2026-05-05 21:00 -8.02061 -34.91820 1296 ft 94 kts 354°
2026-05-05 21:00 -8.01707 -34.92041 1287 ft 92 kts 303°
2026-05-05 21:01 -8.01548 -34.92647 1335 ft 83 kts 283°
2026-05-05 21:01 -8.01414 -34.93209 1305 ft 82 kts 283°
2026-05-05 21:01 -8.01278 -34.93770 1289 ft 80 kts 283°
2026-05-05 21:01 -8.01170 -34.94314 1285 ft 79 kts 269°
2026-05-05 21:02 -8.01529 -34.94651 1282 ft 76 kts 179°
2026-05-05 21:02 -8.02037 -34.94590 1320 ft 74 kts 179°
2026-05-05 21:02 -8.02515 -34.94761 1322 ft 75 kts 216°
2026-05-05 21:02 -8.03016 -34.94922 1325 ft 76 kts 187°
2026-05-05 21:03 -8.03555 -34.94973 1316 ft 78 kts 184°
2026-05-05 21:03 -8.04101 -34.95001 1306 ft 79 kts 181°
2026-05-05 21:03 -8.04656 -34.94983 1300 ft 79 kts 175°
2026-05-05 21:03 -8.05196 -34.94902 1298 ft 78 kts 168°
2026-05-05 21:04 -8.05744 -34.94755 1253 ft 82 kts 162°
2026-05-05 21:04 -8.06296 -34.94556 1172 ft 86 kts 159°
2026-05-05 21:04 -8.06871 -34.94320 1058 ft 90 kts 157°
2026-05-05 21:04 -8.07460 -34.94076 917 ft 90 kts 158°
2026-05-05 21:05 -8.08044 -34.93853 772 ft 88 kts 160°
2026-05-05 21:05 -8.08618 -34.93651 644 ft 86 kts 161°
2026-05-05 21:05 -8.09178 -34.93465 527 ft 84 kts 162°
2026-05-05 21:05 -8.09726 -34.93287 413 ft 82 kts 162°
2026-05-05 21:06 -8.10269 -34.93114 305 ft 80 kts 162°
2026-05-05 21:06 -8.10806 -34.92941 201 ft 79 kts 162°
2026-05-05 21:06 -8.11338 -34.92769 97 ft 79 kts 162°
2026-05-05 21:06 -8.11848 -34.92602 64 ft 70 kts 162°
2026-05-05 21:07 -8.12287 -34.92459 37 ft 62 kts 162°
2026-05-05 21:07 -8.12630 -34.92346 37 ft 43 kts 162°
2026-05-05 21:07 -8.12871 -34.92267 37 ft 28 kts 162°
2026-05-05 21:07 -8.13020 -34.92218 37 ft 16 kts 162°
2026-05-05 21:08 -8.13086 -34.92197 37 ft 4 kts 162°
2026-05-05 21:08 -8.13091 -34.92195 37 ft 0 kts 162°
2026-05-05 21:09 -8.13222 -34.92148 37 ft 32 kts 158°
2026-05-05 21:10 -8.13367 -34.92067 37 ft 14 kts 132°
2026-05-05 21:10 -8.13402 -34.92027 37 ft 2 kts 132°
2026-05-05 21:10 -8.13403 -34.92026 37 ft 0 kts 132°